Location: Hamburg
(53.5500°N, 10.0000°E)
Time: 06:03:12
(UTC+02:00)

A-11 Canister half - All Passes

Search period start: 29 April 2016 00:00
Search period end: 09 May 2016 00:00
Orbit: 1527 x 1683 km, 47.3° (Epoch: 28 April)

Date Brightness Start Highest point End Pass type
(mag) Time Alt. Az. Time Alt. Az. Time Alt. Az.
29 Apr - 05:06:02 10° SSW 05:14:22 33° SE 05:22:53 10° E visible
29 Apr - 07:08:31 10° WSW 07:18:07 57° SSE 07:27:56 10° E daylight
29 Apr - 09:12:44 10° W 09:22:31 60° S 09:32:26 10° ESE daylight
29 Apr - 11:17:32 10° W 11:26:32 39° SSW 11:35:34 10° SSE daylight
29 Apr - 13:24:33 10° W 13:29:20 14° SW 13:34:06 10° SSW daylight
30 Apr - 04:44:40 10° SSW 04:52:51 32° SE 05:01:14 10° E visible
30 Apr - 06:46:59 10° WSW 06:56:33 56° SSE 07:06:20 10° E daylight
30 Apr - 08:51:11 10° W 09:00:57 60° S 09:10:52 10° ESE daylight
30 Apr - 10:55:56 10° W 11:05:00 40° SSW 11:14:06 10° SSE daylight
30 Apr - 13:02:41 10° W 13:07:52 15° SW 13:13:02 10° SSW daylight
01 May - 04:23:17 10° SSW 04:31:21 30° SE 04:39:36 10° E visible
01 May - 06:25:29 10° WSW 06:34:59 55° SSE 06:44:44 10° E daylight
01 May - 08:29:37 10° W 08:39:23 61° S 08:49:18 10° ESE daylight
01 May - 10:34:20 10° W 10:43:28 41° SSW 10:52:38 10° SSE daylight
01 May - 12:40:50 10° W 12:46:23 16° SW 12:51:56 10° SSW daylight
02 May - 04:01:55 10° SSW 04:09:51 29° SE 04:17:56 10° E visible
02 May - 06:03:58 10° SW 06:13:26 54° SSE 06:23:08 10° E daylight
02 May - 08:08:03 10° W 08:17:48 61° S 08:27:43 10° ESE daylight
02 May - 10:12:44 10° W 10:21:55 42° SSW 10:31:10 10° SE daylight
02 May - 12:19:03 10° W 12:24:55 17° SW 12:30:47 10° SSW daylight
03 May - 03:40:35 10° SSW 03:48:21 28° SE 03:56:17 10° E visible
03 May - 05:42:28 10° SW 05:51:52 53° SSE 06:01:32 10° E daylight
03 May - 07:46:30 10° W 07:56:14 61° S 08:06:09 10° ESE daylight
03 May - 09:51:09 10° W 10:00:23 43° SSW 10:09:41 10° SE daylight
03 May - 11:57:16 10° W 12:03:26 18° SW 12:09:36 10° SSW daylight
04 May - 03:19:15 10° S 03:26:51 27° SE 03:34:37 10° E visible
04 May - 05:20:58 10° SW 05:30:19 52° SSE 05:39:56 10° E daylight
04 May - 07:24:56 10° W 07:34:39 62° S 07:44:34 10° ESE daylight
04 May - 09:29:34 10° W 09:38:50 44° SSW 09:48:11 10° SE daylight
04 May - 11:35:32 10° W 11:41:56 19° SW 11:48:23 10° S daylight
05 May - 02:57:56 10° S 03:05:22 26° SE 03:12:58 10° E visible
05 May - 04:59:28 10° SW 05:08:46 51° SSE 05:18:20 10° E daylight
05 May - 07:03:23 10° W 07:13:04 62° S 07:23:00 10° ESE daylight
05 May - 09:07:59 10° W 09:17:17 45° SSW 09:26:41 10° SE daylight
05 May - 11:13:48 10° W 11:20:28 20° SW 11:27:09 10° S daylight
06 May - 02:36:38 10° S 02:43:52 25° SE 02:51:16 10° E visible
06 May - 04:37:59 10° SW 04:47:13 50° SSE 04:56:44 10° E visible
06 May - 06:41:50 10° W 06:51:30 62° S 07:01:24 10° ESE daylight
06 May - 08:46:25 10° W 08:55:44 46° SSW 09:05:11 10° SE daylight
06 May - 10:52:06 10° W 10:58:58 21° SW 11:05:53 10° S daylight
07 May - 02:15:21 10° S 02:22:24 24° SE 02:29:35 10° E visible
07 May - 04:16:30 10° SW 04:25:40 49° SSE 04:35:08 10° E visible
07 May - 06:20:17 10° WSW 06:29:56 62° S 06:39:49 10° ESE daylight
07 May - 08:24:50 10° W 08:34:11 47° SSW 08:43:40 10° SE daylight
07 May - 10:30:24 10° W 10:37:28 22° SW 10:44:36 10° S daylight
08 May - 01:54:04 10° S 02:00:55 22° SE 02:07:53 10° E visible
08 May - 03:55:01 10° SW 04:04:08 48° SSE 04:13:31 10° E visible
08 May - 05:58:44 10° WSW 06:08:21 62° S 06:18:15 10° ESE daylight
08 May - 08:03:16 10° W 08:12:38 48° SSW 08:22:10 10° SE daylight
08 May - 10:08:43 10° W 10:15:59 23° SW 10:23:18 10° S daylight
